Вернуться в каталог

NOAA 16 DEB

АктивенPO
NORAD 41237·DEBRIS·🇺🇸 United States

Запущен Sep 21, 2000 с Vandenberg Space Force Base

Loading…

Ближайшие Пролёты (ближайшие 24 часа)

TLE

СвежийSource: Space-Track

Эпоха: Sep 14, 2026, 13:03 UTC

1 41237U 00055ES  26257.54396487  .00004690  00000-0  10550-2 0  9997
2 41237  98.9817 152.4991 0035331 122.6255 237.8358 14.56592927563291

Отслеживайте NOAA 16 DEB в реальном времени с AllMySat

Download on the App Store